Dewpoint
38 38 38 38 38 37 37 37 37 37 37 37 37 38 39 40 40 40 40 40 40 39 39 39 38 37 36 37 37 36 35 34 33 32 32 32 33 33 34 34 34 35 35 35 35 35 36 36 36 36 36 36 36 36 36 37 37 37 37 37 37 38 38 38 39 39 39 39 39 39 39 39 39 39 39 39 39 39 39 40 40 40 40 40 40 40
37 38 38 38 37 37 37 37 37 37 36 36 37 37 38 38 39 39 39 39 39 39 39 38 36 35 32 34 34 34 32 32 31 31 32 32 32 33 33 34 34 34 34 35 35 35 35 36 36 36 36 36 36 36 36 36 36 36 37 37 37 37 37 37 38 38 38 38 38 38 38 38 38 38 38 38 38 38 39 39 39 39 39 39 39 40
36 36 36 37 37 37 36 36 37 37 37 36 37 37 37 37 37 37 38 38 38 37 37 35 33 31 28 29 31 32 31 31 31 31 32 32 32 33 33 33 33 33 33 34 34 34 35 35 35 35 36 36 36 36 36 36 36 36 36 36 36 36 36 36 37 37 37 37 37 37 37 37 37 37 37 37 38 38 38 38 38 39 39 39 39 40
36 36 36 36 36 36 36 36 36 37 37 37 37 37 37 36 36 36 37 36 35 34 33 31 29 27 24 25 28 31 30 30 30 31 32 32 32 32 32 32 32 32 32 32 33 33 34 34 34 35 35 35 36 36 36 36 36 36 36 36 36 36 36 36 36 36 36 36 36 36 36 36 36 37 37 37 37 38 38 38 38 38 39 39 39 40
35 36 36 36 36 36 36 36 36 37 37 37 37 36 36 36 36 36 35 33 31 30 28 26 25 23 23 23 27 30 30 30 30 31 31 32 32 32 32 31 31 31 31 32 32 33 33 34 34 34 35 35 35 35 35 35 35 35 36 36 36 36 36 36 36 36 36 37 37 37 37 37 37 37 37 37 37 37 38 38 38 38 38 39 39 40
35 36 36 36 35 35 36 36 36 36 36 36 36 36 35 35 35 35 33 31 28 27 25 24 23 23 23 24 27 30 31 30 31 31 31 31 31 31 30 30 30 31 31 32 32 32 33 34 34 34 34 34 34 34 35 35 35 35 35 35 35 35 36 36 36 36 36 36 36 37 37 37 37 37 37 37 37 37 37 37 38 38 38 38 39 39
35 36 36 35 35 35 35 36 36 36 35 35 35 35 34 34 33 33 31 29 27 26 25 25 24 24 23 25 28 31 30 31 31 30 30 30 30 30 30 30 30 30 31 32 32 33 33 33 34 34 34 34 34 34 34 34 34 35 34 34 34 34 34 35 35 35 35 35 36 36 36 36 36 36 36 36 36 36 37 37 37 37 38 38 38 39
34 35 35 35 35 35 35 35 36 36 35 35 34 34 34 33 32 30 27 26 25 24 24 24 25 24 23 23 25 28 28 28 28 28 29 29 30 30 30 30 31 31 31 32 32 33 33 33 33 33 33 34 34 34 34 34 34 33 33 33 33 33 33 34 34 34 34 35 35 35 35 35 35 35 36 36 36 36 36 36 37 37 37 38 38 39
34 34 34 34 34 34 34 35 35 35 35 35 34 33 32 31 29 27 25 24 24 24 24 24 24 23 23 21 21 23 28 28 28 27 27 28 28 29 30 30 31 31 32 32 32 32 32 33 33 33 33 33 33 33 33 33 32 32 32 32 32 32 33 33 33 34 34 34 34 35 35 35 35 35 35 35 35 35 36 36 36 37 37 38 38 38
34 34 34 34 34 34 33 34 33 32 32 34 33 31 29 28 26 24 23 23 24 25 25 24 23 23 22 20 20 23 27 29 29 28 27 27 28 28 29 30 30 31 31 32 32 32 32 32 32 32 32 32 32 32 32 32 32 32 32 32 32 32 32 33 33 33 33 34 34 34 34 34 34 35 35 35 35 35 35 36 36 36 37 37 38 38
33 33 33 32 32 33 32 32 31 29 29 31 30 28 27 26 24 23 22 22 23 23 23 23 22 21 20 20 21 23 25 24 24 25 27 27 28 29 29 29 30 31 31 31 31 31 31 31 32 32 32 32 32 32 31 31 31 31 31 32 32 32 32 32 32 33 33 33 33 34 34 34 34 34 35 35 35 35 35 35 36 36 36 37 37 38
31 31 31 30 30 30 30 30 29 28 27 27 27 26 24 24 24 23 22 22 22 22 22 21 21 21 20 20 21 22 22 21 21 21 22 23 25 27 27 27 28 29 29 31 31 31 31 31 31 31 31 31 31 31 31 31 31 31 31 31 32 32 32 32 32 33 33 33 33 34 34 34 34 34 35 35 35 35 35 35 36 36 36 36 37 37
30 29 29 29 28 28 27 27 27 26 25 25 24 23 23 23 23 23 23 22 22 22 21 21 20 21 21 21 21 21 21 20 20 21 21 22 23 23 23 24 24 25 25 26 27 27 30 30 31 30 30 30 30 30 30 31 31 31 31 31 32 32 32 32 33 33 33 33 34 34 34 34 34 35 35 35 35 35 35 36 36 36 36 36 37 37
29 28 28 27 27 27 26 26 25 24 23 23 23 23 23 23 23 22 22 21 21 21 21 20 20 20 20 21 21 22 21 20 21 21 22 22 22 23 23 23 23 23 24 23 24 25 29 29 29 29 30 30 30 30 31 31 31 31 32 32 32 32 32 32 33 33 33 34 34 34 34 34 34 34 35 35 35 35 36 36 36 36 36 37 37 38
28 28 27 26 26 25 25 24 23 23 23 23 23 23 23 22 21 21 20 20 20 20 20 20 19 19 20 20 21 22 22 21 21 21 21 22 22 22 22 23 23 24 24 23 24 25 28 27 27 26 27 28 30 31 31 31 31 32 32 32 32 32 32 32 33 33 33 33 34 34 34 34 34 34 34 35 35 35 36 36 36 36 36 37 37 38
27 27 26 25 25 24 24 24 23 23 22 22 22 22 21 20 20 20 19 20 20 20 20 19 19 19 19 21 22 23 23 22 22 21 21 22 23 23 22 23 23 23 23 23 23 24 24 24 24 25 26 28 30 30 31 31 31 32 32 32 32 32 32 32 32 33 33 33 33 33 33 33 34 34 34 35 35 35 36 36 36 36 36 36 37 37
27 26 25 24 24 23 23 23 22 22 22 22 21 21 20 20 20 21 20 20 20 20 20 19 19 18 18 20 21 23 23 23 23 23 23 23 24 24 23 23 23 24 23 23 23 23 23 23 24 24 25 28 30 30 30 31 31 31 32 32 32 32 32 32 32 32 33 33 33 33 33 34 34 34 34 35 35 35 35 35 36 36 36 36 36 36
26 25 24 24 23 23 23 22 22 22 22 21 21 21 22 21 21 21 20 21 20 20 19 19 19 18 18 19 19 20 23 23 23 23 24 24 25 24 23 23 23 23 23 23 23 23 23 23 23 23 25 28 30 30 30 30 31 31 31 31 32 32 32 32 32 32 32 33 33 33 34 34 34 34 34 34 35 35 35 35 35 35 36 36 36 36
25 25 24 23 23 23 22 22 22 22 21 21 21 22 21 21 20 20 19 19 19 19 19 18 18 18 19 19 20 21 22 23 24 23 24 23 23 23 23 23 23 23 23 23 23 23 23 23 25 27 30 30 30 30 30 30 30 31 31 31 31 32 32 32 32 32 32 33 33 33 33 34 34 34 34 34 34 35 35 35 36 36 36 36 36 36
24 24 24 23 23 22 21 23 23 23 23 23 22 21 20 19 19 19 19 18 18 18 18 19 19 18 19 20 20 21 23 24 24 23 22 22 22 22 22 22 23 22 22 22 22 23 23 23 23 25 29 29 30 30 30 30 30 30 31 31 31 32 32 32 32 32 32 33 33 33 33 33 33 34 34 34 34 34 35 35 35 35 35 35 36 36
23 23 23 23 22 21 22 23 23 24 26 24 22 20 20 19 19 19 18 18 18 18 18 18 19 19 20 20 22 23 23 24 23 22 22 21 21 21 21 21 21 21 21 22 22 22 22 22 22 23 27 29 29 29 29 30 30 30 31 31 31 31 32 32 32 32 32 33 33 33 33 33 33 33 33 34 34 34 34 34 34 34 34 34 35 35
23 23 22 22 23 23 25 23 24 26 27 23 22 21 21 20 19 19 18 18 18 19 20 20 20 21 23 23 24 24 22 23 22 21 21 20 20 21 21 21 20 20 21 21 22 22 22 22 22 23 27 29 29 29 29 29 30 30 30 31 31 31 31 32 32 32 32 32 33 33 33 33 33 33 33 33 33 33 33 33 33 34 34 34 34 35
23 23 22 22 23 24 25 24 24 26 27 24 24 23 22 21 21 21 19 19 20 20 21 21 22 23 23 23 23 22 22 22 22 21 19 18 19 20 21 21 21 20 21 21 21 21 21 22 22 23 26 28 29 28 29 29 29 30 30 30 31 31 31 32 32 32 32 32 32 32 32 32 32 32 32 33 33 33 33 33 33 33 34 34 34 35
23 23 22 22 22 22 23 23 23 23 25 25 24 23 22 22 22 22 21 21 21 20 20 21 21 22 21 22 21 21 21 22 21 20 19 19 20 21 21 21 21 21 22 21 21 21 21 21 22 22 24 27 28 28 29 29 29 29 30 30 30 31 31 31 31 32 32 32 32 32 32 32 32 32 32 32 32 33 33 33 33 33 33 34 34 34
24 24 24 24 25 26 26 25 25 25 26 24 23 23 23 24 25 24 23 22 22 22 22 22 22 22 21 22 22 21 20 19 19 20 19 18 19 20 21 21 21 21 21 21 21 21 21 21 22 22 23 24 27 28 28 29 29 29 29 29 30 30 30 31 31 31 31 31 31 32 32 32 32 32 32 32 32 32 33 33 33 33 33 33 33 34
29 28 27 27 28 29 29 29 30 29 28 27 26 24 25 26 27 26 25 25 24 24 24 23 23 22 22 22 21 20 20 18 18 19 19 18 19 20 20 21 21 21 21 21 21 21 21 21 22 22 22 23 25 28 28 28 28 29 29 29 29 30 30 30 30 30 31 31 31 31 31 32 32 32 32 32 32 32 32 32 32 32 33 33 33 33
29 29 28 28 29 29 29 29 30 30 29 29 28 28 28 28 27 27 27 26 26 26 25 24 23 22 21 21 20 20 20 21 20 19 19 19 19 19 20 21 21 20 21 21 21 22 23 23 23 22 22 22 23 26 28 28 28 28 28 28 29 29 29 29 29 30 30 30 31 31 31 31 31 32 32 32 32 32 32 32 32 32 32 32 32 32
28 28 28 28 28 28 29 29 29 29 29 29 28 28 28 28 27 26 26 26 26 25 24 23 22 21 21 20 20 20 20 22 22 21 20 20 19 19 19 19 19 19 20 20 21 23 23 23 23 22 22 22 23 25 27 28 28 28 28 28 28 28 28 29 29 29 29 30 30 30 31 31 31 31 31 31 31 32 32 32 32 32 32 31 30 30
27 28 27 27 28 28 28 28 28 29 29 28 28 27 27 27 26 25 25 26 26 25 24 23 23 22 21 21 21 21 21 22 22 22 22 20 18 18 18 18 18 18 19 20 21 21 21 22 21 19 19 23 24 24 25 27 27 27 27 27 27 27 28 28 28 28 29 29 29 30 30 30 30 31 31 31 31 31 31 31 31 31 31 30 29 29
23 24 23 24 25 25 25 23 25 27 28 28 28 27 27 26 26 26 26 26 25 25 24 23 23 23 23 22 22 21 20 20 21 21 21 19 18 18 18 18 18 18 19 20 20 19 18 20 20 19 19 23 23 23 21 23 24 24 25 26 27 27 27 27 27 28 28 28 29 29 29 30 30 30 30 30 30 31 31 31 31 30 29 29 28 28
18 20 19 19 19 19 20 21 22 23 25 26 27 27 26 25 24 24 25 25 25 24 23 23 23 23 23 23 21 20 19 18 21 22 21 20 20 19 19 20 19 19 20 21 20 18 18 19 20 21 20 21 21 22 21 22 22 22 22 23 24 25 27 27 27 27 27 28 28 28 29 29 29 29 30 30 30 30 31 31 30 30 28 28 27 27
17 18 18 18 17 17 18 19 19 19 20 21 22 23 24 24 23 23 23 23 23 24 23 23 23 24 24 23 22 21 20 19 22 25 23 22 22 22 22 22 21 21 22 22 21 19 18 18 19 20 20 20 20 20 21 22 22 22 22 23 23 23 26 26 26 26 26 27 27 27 28 28 28 29 29 29 30 30 30 30 30 29 28 27 27 27
18 18 17 17 17 16 17 17 16 17 18 18 19 20 22 23 24 24 23 23 23 24 24 23 23 23 23 23 23 22 22 21 23 25 25 24 23 23 23 22 22 22 22 22 21 20 19 19 19 19 19 19 20 20 20 22 22 22 23 22 22 22 23 24 25 25 25 26 26 27 27 27 28 28 28 29 29 29 29 30 30 29 29 28 28 28
17 17 17 16 15 14 15 14 15 16 18 19 20 21 22 22 23 24 25 25 25 25 25 24 23 23 23 23 22 22 22 22 23 24 25 25 24 23 23 22 22 21 21 21 20 20 19 19 18 18 18 19 19 19 20 20 21 22 22 22 21 21 21 23 23 23 23 24 24 24 25 26 27 27 27 28 28 28 29 29 30 30 30 29 29 29
15 16 16 14 14 14 14 14 15 16 18 19 20 22 23 23 23 24 26 27 27 26 26 25 24 24 23 23 22 22 21 21 23 25 25 25 24 23 23 22 21 21 21 20 20 19 18 18 18 18 18 18 18 19 19 19 20 21 21 21 21 21 21 22 22 22 23 23 23 23 23 23 24 25 26 27 27 28 29 29 30 30 30 30 30 29
14 14 15 13 13 14 14 15 17 18 19 19 20 21 23 23 23 23 24 25 25 26 26 26 26 25 25 24 23 23 22 22 23 24 25 25 24 23 22 21 21 21 21 20 20 19 18 18 18 19 19 18 18 18 19 19 20 20 20 21 21 22 22 22 22 22 22 22 22 22 22 22 23 24 25 27 28 28 29 29 30 30 30 30 30 30
14 14 14 13 12 13 15 14 16 18 20 21 20 20 22 22 22 22 23 23 23 23 23 24 25 25 25 25 24 23 23 23 23 23 24 24 24 23 22 22 22 22 22 21 20 20 19 18 18 18 18 18 18 18 18 19 19 20 20 20 21 21 22 22 23 23 22 22 23 23 23 23 24 25 26 27 28 28 29 29 29 29 29 30 30 30
13 13 13 12 11 12 13 13 15 18 21 21 22 21 21 19 19 19 21 20 19 18 19 21 21 22 24 25 25 24 23 23 22 23 23 24 24 23 23 22 22 23 23 22 21 21 20 19 18 18 17 17 18 18 19 19 19 19 20 21 21 22 22 22 23 23 23 23 23 24 25 25 25 25 26 26 26 26 26 26 27 28 28 28 29 29
11 11 11 11 12 13 14 15 17 18 19 21 22 22 21 20 20 21 20 19 18 18 18 19 19 20 19 20 22 24 24 23 21 20 21 23 24 24 23 23 23 23 23 23 23 22 21 20 19 18 18 18 18 18 19 19 19 19 20 21 21 22 22 23 23 23 23 23 24 24 25 24 24 24 24 24 24 24 24 24 25 26 27 26 27 28
10 10 11 14 15 15 17 19 20 20 20 22 22 23 22 22 22 22 22 22 22 22 21 20 21 22 22 23 24 25 24 23 22 22 21 23 24 24 23 23 23 23 23 23 23 23 22 21 20 20 20 19 18 19 19 19 20 20 21 21 21 21 22 22 23 23 23 23 23 23 23 23 23 23 23 23 23 23 23 23 24 25 26 25 24 24
11 11 12 14 17 19 21 22 22 22 23 23 22 22 22 22 21 21 21 22 23 23 23 23 23 22 21 22 22 22 22 21 22 23 23 23 23 24 24 23 23 23 23 23 23 23 23 22 21 21 20 20 20 20 20 20 21 22 22 21 21 21 22 23 23 23 23 23 23 23 24 24 24 24 24 24 24 24 24 24 24 24 25 24 24 23
15 15 14 15 16 17 17 19 21 23 23 23 22 21 21 21 21 21 21 21 22 22 22 21 21 20 20 21 21 21 21 21 22 23 23 24 24 24 23 23 23 23 23 23 22 22 23 22 22 21 21 20 20 20 19 20 21 22 22 21 21 22 23 23 23 23 23 23 23 23 24 24 24 23 24 24 24 24 25 25 25 25 25 25 24 24
15 15 15 16 17 18 20 23 23 23 22 21 20 20 20 20 21 21 21 21 21 21 21 21 21 20 20 20 20 20 20 20 21 23 24 23 22 23 23 23 23 23 23 22 22 22 22 22 22 22 21 21 21 20 20 20 21 21 22 22 22 22 21 21 21 22 23 23 23 23 24 24 23 23 24 24 24 24 24 25 26 27 27 25 25 24
15 16 16 18 20 21 23 23 22 21 20 20 20 20 20 20 21 21 21 21 21 21 21 21 21 20 20 20 20 20 20 19 21 22 23 23 23 23 23 23 23 23 23 22 22 21 21 22 22 22 22 22 22 21 21 20 21 21 21 22 22 22 21 21 22 23 23 23 23 24 24 24 24 24 23 23 23 23 23 23 23 24 25 25 25 24
14 16 18 20 21 21 22 22 21 20 20 20 20 20 21 21 21 22 21 21 21 21 21 21 21 20 20 19 19 19 20 20 21 21 21 24 26 26 26 24 24 23 23 23 22 22 21 21 21 21 22 22 22 21 21 21 21 21 22 22 22 23 23 23 23 23 23 23 23 23 23 23 23 23 23 23 23 23 23 23 23 23 23 24 24 24
18 20 21 22 22 22 22 22 21 21 20 20 21 21 21 21 21 21 21 21 21 21 21 21 21 20 20 20 19 19 19 19 20 20 20 21 23 24 25 25 25 24 23 23 23 23 22 22 21 21 21 21 21 21 21 21 21 21 21 22 22 22 22 23 23 23 23 23 23 23 23 23 23 23 23 23 23 23 23 23 23 23 24 24 24 24
18 19 21 22 22 22 22 22 21 20 20 20 20 21 21 21 21 21 21 21 21 21 21 22 21 21 20 20 20 19 19 19 19 19 20 20 21 22 22 23 24 24 24 23 23 23 23 23 23 22 22 21 21 20 20 21 21 21 21 21 21 22 22 22 22 23 23 23 23 23 23 23 23 23 23 23 23 23 23 23 23 24 24 24 25 25
21 22 22 22 21 21 20 20 20 19 19 19 20 20 21 21 22 22 22 22 22 22 22 22 21 20 20 19 19 19 19 19 19 19 20 20 21 21 22 22 22 23 23 24 24 24 23 24 23 23 23 22 21 20 20 20 21 21 21 21 22 22 22 22 22 23 23 23 23 23 23 23 23 23 23 23 23 23 22 23 23 24 24 25 25 26
22 22 22 21 21 20 19 19 19 19 19 19 20 20 20 22 22 23 22 22 22 21 21 20 20 20 19 19 19 20 20 20 20 20 20 20 20 21 21 21 21 22 22 23 23 23 23 24 24 24 24 23 22 21 21 21 21 22 22 22 22 22 22 22 22 23 23 23 23 23 23 23 23 23 23 23 23 22 22 23 23 24 24 25 25 26
22 21 22 21 21 20 20 20 20 20 20 20 20 20 20 21 21 21 22 21 21 21 21 21 20 20 19 19 19 19 20 20 19 19 20 20 20 21 21 21 21 21 21 22 22 22 22 23 23 25 26 25 25 23 22 22 22 22 22 22 23 23 22 22 23 23 23 23 23 24 24 24 24 23 23 23 23 23 23 23 23 23 23 24 24 24
20 20 20 20 20 20 19 19 19 20 20 20 20 20 20 20 21 21 21 21 21 21 21 21 20 20 20 20 19 20 20 20 20 20 20 20 20 21 21 21 21 21 21 20 20 20 19 19 19 20 22 25 26 26 23 23 23 22 22 22 22 22 22 22 22 23 23 23 23 23 24 23 23 23 23 23 23 23 22 22 22 22 22 22 23 23